Regional Weather Roundup
Issued by NWS

Home | Current Version | Previous Version | Graphics & Text | Print | Product List | Glossary On
Versions: 1 2 3 4 5 6 7 8 9 10 11 12 13 14 15 16 17 18 19 20 21 22 23 24 25 26 27 28 29 30 31 32 33 34 35 36 37 38 39 40 41 42 43 44 45 46 47 48 49 50
000
ASUS43 KDMX 250503
RWRIA

WEATHER ROUNDUP FOR IOWA
NATIONAL WEATHER SERVICE DES MOINES IA
1200 AM CDT WED MAY 25 2016

NOTE: "FAIR" INDICATES FEW OR NO CLOUDS BELOW 12,000 FEET WITH NO
SIGNIFICANT WEATHER AND/OR OBSTRUCTIONS TO VISIBILITY.

* - THESE STATIONS ARE NOT NWS STATIONS...THUS NOT UNDER NWS
QUALITY CONTROL.  THEY ALSO DO NOT REPORT WEATHER SUCH
AS PRECIPITATION OR FOG.

IAZ001>003-012>014-020>022-031>034-043>046-250600-
   NORTHWEST IOWA

CITY           SKY/WX    TMP DP  RH WIND       PRES   REMARKS
CARROLL *      CLOUDY    66  64  94 CALM      29.88S
CHEROKEE *     CLOUDY    67  65  90 SE5       29.87S
DENISON *      CLEAR     68  61  77 SE7       29.86S
LE MARS *      CLOUDY    68  64  88 SE7       29.86S
ORANGE CITY *  CLEAR     70  64  83 SE5       29.87R
SHELDON *      CLEAR     68  64  88 SE7       29.86R
SIOUX CITY     CLOUDY    67  62  84 SE8       29.83F
SPENCER        CLEAR     64  60  87 SE7       29.88F
STORM LAKE *   CLEAR     68  63  83 SE9       29.89R
$$

IAZ055>058-069>071-079>083-090>094-250600-
   SOUTHWEST IOWA

CITY           SKY/WX    TMP DP  RH WIND       PRES   REMARKS
ATLANTIC *     CLOUDY    68  61  77 S7        29.90R
AUDUBON *      CLOUDY    63  59  88 CALM      29.90S
CLARINDA *       N/A     70  66  88 MISG      29.93R
COUNCIL BLFS * CLEAR     70  64  83 SE12      29.89R
CRESTON *      PTCLDY    66  64  94 S8        29.94R
HARLAN  *        N/A    N/A N/A N/A MISG        N/A
LAMONI         CLOUDY    66  63  90 S7        29.92R
RED OAK *      CLOUDY    70  64  83 S9        29.91R
SHENANDOAH *   CLOUDY    72  68  88 SE9       29.91R
$$

IAZ047>049-059>061-072>074-084-250600-
   CENTRAL IOWA

CITY           SKY/WX    TMP DP  RH WIND       PRES   REMARKS
AMES           CLOUDY    67  62  84 SE6       29.90S
ANKENY *       CLOUDY    68  63  83 SE3       29.90S
BOONE *        CLOUDY    68  63  83 S7        29.90S
CHARITON *     CLOUDY    66  64  94 SE7       29.92S
DES MOINES     CLOUDY    70  62  76 S8        29.90S
GRINNELL*      CLEAR     68  63  83 S6        29.93S
KNOXVILLE *    CLOUDY    68  63  83 S7        29.91R
MARSHALLTOWN   CLEAR     70  61  73 S3        29.90F
NEWTON *         N/A     68  64  88 S7        29.91S
PELLA *        CLOUDY    67  63  86 S6        29.93R
PERRY *          N/A     68  64  88 SE8       29.89S
$$

IAZ004>006-015-016-023>025-035-036-250600-
   NORTH CENTRAL IOWA

CITY           SKY/WX    TMP DP  RH WIND       PRES   REMARKS
ALGONA *       CLEAR     68  63  83 SE7       29.90S
CLARION *      CLEAR     66  64  94 SE6       29.90S
ESTHERVILLE    CLEAR     64  59  83 S7        29.88F
FORT DODGE *   CLEAR     64  59  82 CALM      29.90S
MASON CITY     CLEAR     63  60  90 CALM      29.92S
FOREST CITY *  CLEAR     57  57 100 CALM      29.91S
WEBSTER CITY * CLOUDY    66  63  88 SE9       29.88F
IOWA FALLS *     N/A     66  59  77 CALM      29.92S
$$

IAZ007>011-017>019-026>030-037>042-050>054-066-250600-
   NORTHEAST IOWA

CITY           SKY/WX    TMP DP  RH WIND       PRES   REMARKS
CEDAR RAPIDS   CLEAR     69  66  90 S8        29.93R
CHARLES CITY * CLEAR     70  59  68 SE6       29.92R
CLINTON *      CLEAR     71  62  73 S5        29.95R
DECORAH *      CLEAR     70  59  68 SE5       29.92R
DUBUQUE        PTCLDY    68  60  75 E5        29.94S
MONTICELLO *   MOCLDY    72  63  73 S7        29.93R
OELWEIN *      PTCLDY    68  61  77 SE8       29.93S
WATERLOO       CLEAR     65  59  81 S5        29.91R
$$

IAZ064-065-067-068-078-250600-
   EAST CENTRAL IOWA

CITY           SKY/WX    TMP DP  RH WIND       PRES   REMARKS
DAVENPORT      CLEAR     72  63  73 S8        29.95S
IOWA CITY      CLEAR     70  63  78 S3        29.95R
MT. PLEASANT * CLEAR     70  64  83 S7        29.94S
MUSCATINE *    CLEAR     68  63  83 S5        29.94R
QUAD CITIES    CLEAR     72  62  71 S5        29.93S
$$

IAZ062-063-075>077-085>089-095>099-250600-
   SOUTHEAST IOWA

CITY           SKY/WX    TMP DP  RH WIND       PRES   REMARKS
BURLINGTON     CLEAR     66  63  90 S5        29.94F
FAIRFIELD *      N/A    N/A N/A N/A MISG        N/A
FORT MADISON * CLEAR     66  63  88 S5        29.96S
KEOKUK *       CLEAR     68  64  88 S5        29.95R
OSKALOOSA *      N/A     66  61  82 S9        29.93S
OTTUMWA        CLEAR     67  63  87 SE3       29.93S
WASHINGTON *   CLEAR     66  64  94 S7        29.95R
$$

ABBREVIATIONS USED IN REMARKS
   TC - TEMPERATURES IN CELSIUS
  WCI - WIND CHILL INDEX
   HX - HEAT INDEX
  VSB - VISIBILITY
$$





USA.gov is the U.S. government's official web portal to all federal, state and local government web resources and services.